Terminal Aerodrome Forecast
Issued by NWS

Home | Current Version | Previous Version | Text Only | Print | Product List | Glossary On
Versions: 1 2 3 4 5 6 7 8 9 10 11 12 13 14 15 16 17 18 19 20 21 22 23 24 25 26 27
078
FTAK31 PAFA 091740
TAFAOR
TAF
PAOR 091740Z 0918/1018 VRB03KT P6SM FEW002 BKN100
     FM100200 VRB03KT P6SM VCSH BKN060=

USA.gov is the U.S. government's official web portal to all federal, state and local government web resources and services.